Tracking 32139 objects as of 18-Nov-2025
HD Live streaming from Space Station
objects crossing your sky now

STARLINK-35043

Track STARLINK-35043 now!
10-day predictions
STARLINK-35043 is classified as:


NORAD ID: 65436
Int'l Code: 2025-194C
Perigee: 570.8 km
Apogee: 574.4 km
Inclination: 97.6 °
Period: 96.0 minutes
Semi major axis: 6943 km
RCS: Unknown
Launch date: September 3, 2025
Source: United States (US)
Launch site: AIR FORCE WESTERN TEST RANGE (AFWTR)
Your satellite tracking list
Your tracking list is empty




NASA's NSSDC Master Catalog

Two Line Element Set (TLE):
1 65436U 25194C   25321.85886111  .00006317  00000-0  50630-3 0  9990
2 65436  97.6022 175.7934 0002539  88.1563 271.9951 15.00463934 12921
Source of the keplerian elements: AFSPC